• In Uzbekistan
  • List of Countries
  • For 7 days
  • Water Temperature
  • Satellite Maps
  • Weather Map
  • Weather Widgets
  • user-avatar
    Login

    Hourly Weather Darwin

    Today, 24 August, Thursday

    Time Temperature Precipitation Wind Pressure Humidity
    00:00 +26°C° 0 mm 3 mps 760 mmHg 78%
    01:00 +25°C° 0 mm 3 mps 760 mmHg 80%
    02:00 +25°C° 0 mm 3 mps 760 mmHg 81%
    03:00 +25°C° 0 mm 3 mps 760 mmHg 83%
    04:00 +24°C° 0 mm 3 mps 760 mmHg 85%
    05:00 +24°C° 0 mm 3 mps 760 mmHg 87%
    06:00 +22°C° 0 mm 3 mps 760 mmHg 89%
    07:00 +26°C° 0 mm 3 mps 760 mmHg 74%
    08:00 +28°C° 0 mm 4 mps 761 mmHg 58%
    09:00 +30°C° 0 mm 4 mps 761 mmHg 43%
    10:00 +34°C° 0 mm 5 mps 760 mmHg 34%
    11:00 +36°C° 0 mm 5 mps 760 mmHg 25%
    12:00 +40°C° 0 mm 6 mps 759 mmHg 16%
    13:00 +40°C° 0 mm 6 mps 759 mmHg 16%
    14:00 +41°C° 0 mm 5 mps 758 mmHg 16%
    15:00 +42°C° 0 mm 5 mps 757 mmHg 15%
    16:00 +40°C° 0 mm 5 mps 757 mmHg 21%
    17:00 +37°C° 0 mm 5 mps 757 mmHg 26%
    18:00 +35°C° 0 mm 4 mps 757 mmHg 32%
    19:00 +33°C° 0 mm 4 mps 758 mmHg 43%
    20:00 +30°C° 0 mm 3 mps 759 mmHg 55%
    21:00 +28°C° 0 mm 3 mps 759 mmHg 66%
    22:00 +27°C° 0 mm 3 mps 759 mmHg 70%
    23:00 +27°C° 0 mm 3 mps 760 mmHg 73%

    Tomorrow, 25 August, Friday

    Time Temperature Precipitation Wind Pressure Humidity
    00:00 +27°C° 0 mm 3 mps 760 mmHg 77%
    01:00 +26°C° 0 mm 2 mps 760 mmHg 80%
    02:00 +26°C° 0 mm 2 mps 759 mmHg 84%
    03:00 +25°C° 0 mm 2 mps 759 mmHg 87%
    04:00 +25°C° 0 mm 3 mps 760 mmHg 88%
    05:00 +23°C° 0 mm 4 mps 760 mmHg 89%
    06:00 +23°C° 0 mm 4 mps 760 mmHg 90%
    07:00 +26°C° 0 mm 5 mps 760 mmHg 68%
    08:00 +28°C° 0 mm 6 mps 761 mmHg 47%
    09:00 +30°C° 0 mm 7 mps 761 mmHg 25%
    10:00 +34°C° 0 mm 6 mps 761 mmHg 22%
    11:00 +36°C° 0 mm 6 mps 760 mmHg 20%
    12:00 +39°C° 0 mm 6 mps 760 mmHg 17%
    13:00 +40°C° 0 mm 5 mps 759 mmHg 16%
    14:00 +40°C° 0 mm 5 mps 758 mmHg 15%
    15:00 +41°C° 0 mm 4 mps 757 mmHg 14%
    16:00 +40°C° 0 mm 4 mps 757 mmHg 16%
    17:00 +37°C° 0 mm 3 mps 757 mmHg 18%
    18:00 +35°C° 0 mm 3 mps 757 mmHg 20%
    19:00 +33°C° 0 mm 3 mps 758 mmHg 24%
    20:00 +30°C° 0 mm 3 mps 758 mmHg 29%
    21:00 +28°C° 0 mm 2 mps 759 mmHg 34%
    22:00 +27°C° 0 mm 2 mps 759 mmHg 38%
    23:00 +27°C° 0 mm 2 mps 759 mmHg 42%

    Day after tomorrow, 26 August, Saturday

    Time Temperature Precipitation Wind Pressure Humidity
    00:00 +26°C° 0 mm 1 mps 760 mmHg 47%
    01:00 +25°C° 0 mm 2 mps 759 mmHg 44%
    02:00 +25°C° 0 mm 2 mps 759 mmHg 41%
    03:00 +24°C° 0 mm 2 mps 759 mmHg 39%
    04:00 +22°C° 0 mm 3 mps 759 mmHg 38%
    05:00 +22°C° 0 mm 4 mps 760 mmHg 37%
    06:00 +21°C° 0 mm 5 mps 760 mmHg 36%
    07:00 +23°C° 0 mm 6 mps 760 mmHg 34%
    08:00 +26°C° 0 mm 6 mps 761 mmHg 32%
    09:00 +29°C° 0 mm 7 mps 761 mmHg 30%
    10:00 +32°C° 0 mm 6 mps 760 mmHg 25%
    11:00 +34°C° 0 mm 6 mps 760 mmHg 21%
    12:00 +37°C° 0 mm 5 mps 759 mmHg 16%
    13:00 +39°C° 0 mm 5 mps 758 mmHg 14%
    14:00 +38°C° 0 mm 4 mps 758 mmHg 13%
    15:00 +40°C° 0 mm 4 mps 757 mmHg 12%
    16:00 +38°C° 0 mm 3 mps 757 mmHg 14%
    17:00 +36°C° 0 mm 3 mps 757 mmHg 17%
    18:00 +34°C° 0 mm 3 mps 757 mmHg 19%
    19:00 +31°C° 0 mm 3 mps 758 mmHg 24%
    20:00 +29°C° 0 mm 2 mps 759 mmHg 29%
    21:00 +27°C° 0 mm 2 mps 759 mmHg 33%
    22:00 +26°C° 0 mm 2 mps 760 mmHg 35%
    23:00 +25°C° 0 mm 2 mps 760 mmHg 36%

    27 August, Sunday

    Time Temperature Precipitation Wind Pressure Humidity
    00:00 +25°C° 0 mm 2 mps 760 mmHg 38%
    01:00 +24°C° 0 mm 2 mps 759 mmHg 37%
    02:00 +24°C° 0 mm 2 mps 759 mmHg 36%
    03:00 +24°C° 0 mm 3 mps 759 mmHg 34%
    04:00 +22°C° 0 mm 3 mps 759 mmHg 36%
    05:00 +22°C° 0 mm 4 mps 760 mmHg 38%
    06:00 +21°C° 0 mm 4 mps 760 mmHg 41%
    07:00 +23°C° 0 mm 5 mps 760 mmHg 39%
    08:00 +27°C° 0 mm 6 mps 761 mmHg 38%
    09:00 +29°C° 0 mm 6 mps 761 mmHg 37%
    10:00 +32°C° 0 mm 6 mps 760 mmHg 31%
    11:00 +35°C° 0 mm 6 mps 760 mmHg 26%
    12:00 +38°C° 0 mm 6 mps 759 mmHg 21%
    13:00 +39°C° 0 mm 6 mps 758 mmHg 20%
    14:00 +39°C° 0 mm 5 mps 758 mmHg 20%
    15:00 +40°C° 0 mm 5 mps 757 mmHg 20%
    16:00 +37°C° 0 mm 4 mps 757 mmHg 24%
    17:00 +36°C° 0 mm 4 mps 757 mmHg 27%
    18:00 +35°C° 0 mm 3 mps 757 mmHg 30%
    19:00 +33°C° 0 mm 3 mps 758 mmHg 36%
    20:00 +30°C° 0 mm 3 mps 759 mmHg 41%
    21:00 +29°C° 0 mm 2 mps 759 mmHg 47%
    22:00 +28°C° 0 mm 2 mps 759 mmHg 49%
    23:00 +27°C° 0 mm 2 mps 759 mmHg 51%

    28 August, Monday

    Time Temperature Precipitation Wind Pressure Humidity
    00:00 +26°C° 0 mm 2 mps 759 mmHg 53%
    01:00 +26°C° 0 mm 2 mps 759 mmHg 53%
    02:00 +25°C° 0 mm 2 mps 759 mmHg 52%
    03:00 +25°C° 0 mm 2 mps 759 mmHg 51%
    04:00 +24°C° 0 mm 3 mps 759 mmHg 48%
    05:00 +22°C° 0 mm 4 mps 760 mmHg 45%
    06:00 +21°C° 0 mm 4 mps 760 mmHg 42%
    07:00 +25°C° 0 mm 5 mps 760 mmHg 38%
    08:00 +27°C° 0 mm 6 mps 761 mmHg 34%
    09:00 +30°C° 0 mm 7 mps 761 mmHg 31%
    10:00 +33°C° 0 mm 6 mps 760 mmHg 27%
    11:00 +35°C° 0 mm 6 mps 760 mmHg 24%
    12:00 +38°C° 0 mm 6 mps 759 mmHg 20%
    13:00 +39°C° 0 mm 5 mps 758 mmHg 19%
    14:00 +40°C° 0 mm 5 mps 758 mmHg 18%
    15:00 +40°C° 0 mm 4 mps 757 mmHg 17%
    16:00 +38°C° 0 mm 4 mps 757 mmHg 20%
    17:00 +36°C° 0 mm 4 mps 757 mmHg 23%
    18:00 +35°C° 0 mm 3 mps 757 mmHg 26%
    19:00 +33°C° 0 mm 3 mps 758 mmHg 31%
    20:00 +30°C° 0 mm 3 mps 758 mmHg 37%
    21:00 +28°C° 0 mm 2 mps 759 mmHg 43%
    22:00 +27°C° 0 mm 2 mps 759 mmHg 45%
    23:00 +26°C° 0 mm 2 mps 759 mmHg 47%

    29 August, Tuesday

    Time Temperature Precipitation Wind Pressure Humidity
    00:00 +26°C° 0 mm 2 mps 759 mmHg 49%
    01:00 +25°C° 0 mm 2 mps 759 mmHg 46%
    02:00 +25°C° 0 mm 2 mps 759 mmHg 42%
    03:00 +24°C° 0 mm 2 mps 759 mmHg 39%
    04:00 +24°C° 0 mm 3 mps 759 mmHg 39%
    05:00 +22°C° 0 mm 3 mps 759 mmHg 38%
    06:00 +22°C° 0 mm 4 mps 759 mmHg 37%
    07:00 +25°C° 0 mm 4 mps 760 mmHg 33%
    08:00 +28°C° 0 mm 5 mps 760 mmHg 28%
    09:00 +30°C° 0 mm 5 mps 760 mmHg 23%
    10:00 +33°C° 0 mm 5 mps 760 mmHg 21%
    11:00 +36°C° 0 mm 5 mps 759 mmHg 18%
    12:00 +38°C° 0 mm 4 mps 759 mmHg 16%
    13:00 +40°C° 0 mm 4 mps 758 mmHg 16%
    14:00 +40°C° 0 mm 4 mps 757 mmHg 16%
    15:00 +40°C° 0 mm 4 mps 757 mmHg 15%
    16:00 +38°C° 0 mm 4 mps 757 mmHg 19%
    17:00 +36°C° 0 mm 4 mps 757 mmHg 24%
    18:00 +34°C° 0 mm 3 mps 757 mmHg 28%
    19:00 +31°C° 0 mm 3 mps 758 mmHg 35%
    20:00 +29°C° 0 mm 3 mps 759 mmHg 43%
    21:00 +27°C° 0 mm 2 mps 759 mmHg 50%
    22:00 +27°C° 0 mm 2 mps 759 mmHg 51%
    23:00 +27°C° 0 mm 2 mps 759 mmHg 52%
    Show more